�������l�o���
Date,Time,MP-1(��Sv/h),MP-2(��Sv/h),MP-3(��Sv/h),MP-4(��Sv/h),MP-5(��Sv/h),MP-6(��Sv/h),MP-7(��Sv/h),����,����(m/s),���J
2015/08/30,00:00,0.475,0.274,0.489,0.450,0.443,0.217,0.187,���k��,3.6,��
2015/08/30,00:10,0.476,0.272,0.487,0.446,0.444,0.216,0.189,���k��,3.7,��
2015/08/30,00:20,0.479,0.272,0.491,0.452,0.446,0.219,0.187,���k��,3.2,��
2015/08/30,00:30,0.474,0.273,0.487,0.446,0.442,0.219,0.188,���k��,4.0,��
2015/08/30,00:40,0.479,0.271,0.490,0.450,0.448,0.217,0.188,���k��,4.3,��
2015/08/30,00:50,0.477,0.275,0.490,0.448,0.443,0.218,0.188,�k��,3.6,��
2015/08/30,01:00,0.475,0.271,0.485,0.446,0.443,0.218,0.188,�k��,3.7,��
2015/08/30,01:10,0.480,0.273,0.492,0.452,0.446,0.217,0.187,�k��,3.3,��
2015/08/30,01:20,0.475,0.273,0.486,0.448,0.439,0.217,0.189,�k��,3.7,��
2015/08/30,01:30,0.477,0.272,0.490,0.448,0.446,0.219,0.188,�k��,3.9,��
2015/08/30,01:40,0.479,0.273,0.491,0.450,0.445,0.217,0.188,�k��,4.0,��
2015/08/30,01:50,0.473,0.271,0.485,0.445,0.442,0.217,0.188,�k��,3.3,�L
2015/08/30,02:00,0.480,0.274,0.492,0.451,0.447,0.219,0.188,�k��,3.6,�L
2015/08/30,02:10,0.475,0.273,0.488,0.448,0.440,0.217,0.188,�k��,3.5,�L
2015/08/30,02:20,0.478,0.273,0.487,0.449,0.449,0.219,0.188,�k�k��,2.1,�L
2015/08/30,02:30,0.479,0.274,0.490,0.451,0.442,0.218,0.188,�k�k��,2.4,�L
2015/08/30,02:40,0.475,0.273,0.486,0.445,0.443,0.219,0.188,�k�k��,2.5,�L
2015/08/30,02:50,0.479,0.274,0.491,0.452,0.444,0.219,0.189,�k�k��,2.5,�L
2015/08/30,03:00,0.475,0.271,0.487,0.447,0.439,0.218,0.188,�k,3.8,�L
2015/08/30,03:10,0.476,0.273,0.488,0.448,0.446,0.220,0.189,�k�k��,4.4,�L
2015/08/30,03:20,0.478,0.273,0.490,0.450,0.440,0.218,0.189,�k�k��,4.7,�L
2015/08/30,03:30,0.474,0.272,0.485,0.445,0.445,0.219,0.189,�k�k��,5.1,�L
2015/08/30,03:40,0.479,0.274,0.492,0.452,0.444,0.220,0.189,�k�k��,5.3,�L
2015/08/30,03:50,0.475,0.274,0.488,0.446,0.445,0.218,0.187,�k�k��,5.4,�L
2015/08/30,04:00,0.479,0.276,0.489,0.449,0.444,0.219,0.189,�k�k��,5.3,�L
2015/08/30,04:10,0.478,0.274,0.489,0.449,0.443,0.219,0.188,�k�k��,6.0,�L
2015/08/30,04:20,0.477,0.276,0.486,0.446,0.447,0.219,0.190,�k�k��,6.1,�L
2015/08/30,04:30,0.480,0.275,0.492,0.451,0.442,0.218,0.187,�k�k��,5.8,�L
2015/08/30,04:40,0.472,0.274,0.486,0.446,0.448,0.219,0.189,�k�k��,5.9,�L
2015/08/30,04:50,0.479,0.274,0.491,0.450,0.444,0.219,0.189,�k�k��,6.0,�L
2015/08/30,05:00,0.474,0.273,0.487,0.447,0.444,0.217,0.187,�k�k��,6.2,�L
2015/08/30,05:10,0.478,0.275,0.486,0.446,0.445,0.219,0.188,�k�k��,6.4,�L
2015/08/30,05:20,0.475,0.272,0.491,0.448,0.442,0.217,0.187,�k�k��,5.9,�L
2015/08/30,05:30,0.475,0.274,0.485,0.444,0.446,0.219,0.189,�k�k��,5.9,�L
2015/08/30,05:40,0.478,0.272,0.489,0.448,0.439,0.217,0.188,�k�k��,5.9,�L
2015/08/30,05:50,0.473,0.273,0.486,0.445,0.446,0.218,0.188,�k�k��,6.2,�L
2015/08/30,06:00,0.478,0.274,0.488,0.449,0.442,0.219,0.187,�k�k��,6.0,�L
2015/08/30,06:10,0.474,0.272,0.488,0.445,0.444,0.218,0.188,�k�k��,6.3,�L
2015/08/30,06:20,0.476,0.275,0.484,0.445,0.442,0.218,0.187,�k�k��,5.9,�L
2015/08/30,06:30,0.475,0.272,0.488,0.446,0.441,0.218,0.189,�k�k��,5.9,�L
2015/08/30,06:40,0.472,0.274,0.482,0.442,0.445,0.220,0.188,�k�k��,5.9,�L
2015/08/30,06:50,0.475,0.272,0.488,0.446,0.440,0.218,0.189,�k�k��,6.5,�L
2015/08/30,07:00,0.470,0.274,0.485,0.442,0.446,0.219,0.188,�k�k��,7.1,�L
2015/08/30,07:10,0.476,0.273,0.484,0.446,0.441,0.218,0.188,�k�k��,6.6,�L
2015/08/30,07:20,0.472,0.273,0.486,0.445,0.446,0.218,0.187,�k�k��,6.4,�L
2015/08/30,07:30,0.476,0.274,0.484,0.445,0.442,0.218,0.188,�k�k��,5.6,�L
2015/08/30,07:40,0.474,0.274,0.490,0.448,0.443,0.218,0.189,�k�k��,4.7,��
2015/08/30,07:50,0.473,0.275,0.485,0.444,0.445,0.218,0.188,�k�k��,5.3,��
2015/08/30,08:00,0.478,0.271,0.486,0.448,0.440,0.218,0.189,�k�k��,4.9,��
2015/08/30,08:10,0.470,0.273,0.486,0.445,0.447,0.217,0.188,�k�k��,5.3,��
2015/08/30,08:20,0.479,0.272,0.484,0.445,0.441,0.217,0.187,�k�k��,5.0,��
2015/08/30,08:30,0.474,0.273,0.489,0.449,0.446,0.216,0.188,�k�k��,6.1,��
2015/08/30,08:40,0.473,0.274,0.484,0.443,0.444,0.218,0.186,�k�k��,5.6,��
2015/08/30,08:50,0.476,0.270,0.488,0.448,0.443,0.216,0.188,�k�k��,5.5,�L
2015/08/30,09:00,0.474,0.273,0.488,0.445,0.445,0.217,0.186,�k�k��,5.6,��
2015/08/30,09:10,0.477,0.272,0.485,0.445,0.440,0.218,0.189,�k�k��,5.7,�L
2015/08/30,09:20,0.474,0.272,0.490,0.448,0.447,0.217,0.187,�k�k��,5.3,�L
2015/08/30,09:30,0.472,0.274,0.486,0.442,0.443,0.218,0.187,�k�k��,5.4,�L
2015/08/30,09:40,0.477,0.271,0.489,0.449,0.441,0.217,0.189,�k�k��,5.2,�L
2015/08/30,09:50,0.473,0.274,0.490,0.447,0.446,0.218,0.186,�k�k��,6.1,��
2015/08/30,10:00,0.477,0.272,0.483,0.443,0.440,0.217,0.189,�k�k��,5.5,��
2015/08/30,10:10,0.476,0.273,0.492,0.448,0.446,0.217,0.188,�k�k��,5.5,��
2015/08/30,10:20,0.473,0.275,0.487,0.446,0.443,0.219,0.187,�k�k��,5.3,��
2015/08/30,10:30,0.476,0.271,0.485,0.445,0.440,0.217,0.188,�k�k��,5.1,��
2015/08/30,10:40,0.474,0.271,0.489,0.447,0.445,0.217,0.187,�k�k��,4.0,�L
2015/08/30,10:50,0.474,0.273,0.485,0.444,0.443,0.217,0.187,�k�k��,4.4,�L
2015/08/30,11:00,0.477,0.272,0.489,0.448,0.441,0.217,0.188,�k�k��,3.7,�L
2015/08/30,11:10,0.471,0.273,0.489,0.449,0.447,0.218,0.187,�k�k��,3.4,�L
2015/08/30,11:20,0.476,0.273,0.485,0.444,0.440,0.218,0.188,�k��,2.8,�L
2015/08/30,11:30,0.474,0.271,0.490,0.448,0.443,0.217,0.189,�k�k��,4.8,�L
2015/08/30,11:40,0.471,0.274,0.487,0.447,0.444,0.218,0.187,�k,4.1,�L
2015/08/30,11:50,0.477,0.273,0.485,0.444,0.440,0.219,0.189,�k,4.4,�L
2015/08/30,12:00,0.472,0.272,0.491,0.451,0.446,0.218,0.188,�k�k��,3.5,�L
2015/08/30,12:10,0.473,0.273,0.487,0.445,0.443,0.219,0.189,�k�k��,4.2,�L
2015/08/30,12:20,0.476,0.273,0.487,0.445,0.442,0.219,0.189,�k�k��,4.6,�L
2015/08/30,12:30,0.471,0.277,0.488,0.449,0.446,0.220,0.190,�k�k��,4.3,�L
2015/08/30,12:40,0.479,0.274,0.486,0.444,0.442,0.220,0.191,�k,4.4,�L
2015/08/30,12:50,0.476,0.275,0.488,0.450,0.445,0.222,0.189,�k,4.7,�L
2015/08/30,13:00,0.474,0.276,0.486,0.446,0.444,0.221,0.190,�k,3.6,�L
2015/08/30,13:10,0.478,0.273,0.486,0.443,0.443,0.220,0.189,�k�k��,4.0,��
2015/08/30,13:20,0.471,0.275,0.490,0.448,0.448,0.221,0.188,�k�k��,3.9,��
2015/08/30,13:30,0.475,0.275,0.485,0.445,0.442,0.218,0.189,�k�k��,4.4,��
2015/08/30,13:40,0.477,0.272,0.489,0.445,0.443,0.218,0.189,�k,3.1,��
2015/08/30,13:50,0.469,0.274,0.489,0.449,0.445,0.217,0.188,�k,3.4,�L
2015/08/30,14:00,0.476,0.272,0.485,0.444,0.440,0.218,0.188,�k,4.1,�L
2015/08/30,14:10,0.474,0.274,0.490,0.447,0.445,0.218,0.187,�k�k��,4.5,�L
2015/08/30,14:20,0.471,0.273,0.487,0.447,0.443,0.218,0.188,�k,4.3,�L
2015/08/30,14:30,0.477,0.273,0.484,0.443,0.441,0.218,0.188,�k�k��,5.2,�L
2015/08/30,14:40,0.472,0.275,0.491,0.450,0.447,0.219,0.188,�k,5.0,�L
2015/08/30,14:50,0.474,0.274,0.485,0.445,0.443,0.219,0.189,�k�k��,3.9,�L
2015/08/30,15:00,0.476,0.276,0.486,0.445,0.446,0.220,0.189,�k�k��,4.0,�L
2015/08/30,15:10,0.471,0.275,0.491,0.450,0.446,0.219,0.189,�k�k��,4.3,�L
2015/08/30,15:20,0.479,0.274,0.484,0.444,0.442,0.219,0.191,�k,4.6,�L
2015/08/30,15:30,0.475,0.276,0.489,0.448,0.447,0.222,0.190,�k�k��,5.0,�L
2015/08/30,15:40,0.474,0.276,0.488,0.446,0.445,0.221,0.193,�k�k��,4.9,�L
2015/08/30,15:50,0.478,0.277,0.484,0.443,0.445,0.223,0.192,�k�k��,6.4,�L
2015/08/30,16:00,0.472,0.278,0.487,0.446,0.447,0.222,0.191,�k,5.8,�L
2015/08/30,16:10,0.478,0.277,0.482,0.441,0.441,0.222,0.191,�k,3.8,�L
2015/08/30,16:20,0.472,0.279,0.486,0.444,0.449,0.222,0.190,�k�k��,5.8,�L
2015/08/30,16:30,0.473,0.275,0.487,0.447,0.444,0.221,0.191,�k�k��,5.2,�L
2015/08/30,16:40,0.477,0.276,0.482,0.442,0.444,0.223,0.188,�k,4.7,�L
2015/08/30,16:50,0.470,0.277,0.490,0.446,0.446,0.220,0.190,�k,4.8,�L
2015/08/30,17:00,0.477,0.275,0.486,0.446,0.442,0.220,0.191,�k,4.0,�L
2015/08/30,17:10,0.474,0.277,0.485,0.443,0.448,0.220,0.189,�k,3.7,�L
2015/08/30,17:20,0.472,0.273,0.490,0.448,0.446,0.219,0.191,�k,3.2,�L
2015/08/30,17:30,0.477,0.274,0.483,0.443,0.445,0.220,0.189,�k��,4.8,�L
2015/08/30,17:40,0.471,0.275,0.487,0.446,0.447,0.218,0.188,�k��,4.5,�L
2015/08/30,17:50,0.474,0.272,0.487,0.448,0.440,0.219,0.189,�k��,3.6,�L
2015/08/30,18:00,0.475,0.273,0.485,0.442,0.447,0.218,0.189,�k��,5.1,�L
2015/08/30,18:10,0.471,0.273,0.490,0.449,0.445,0.218,0.190,�k��,4.4,�L
2015/08/30,18:20,0.476,0.274,0.485,0.445,0.443,0.218,0.187,�k��,4.5,�L
2015/08/30,18:30,0.471,0.274,0.486,0.446,0.445,0.218,0.188,�k��,5.2,�L
2015/08/30,18:40,0.471,0.273,0.488,0.447,0.441,0.218,0.188,�k��,4.1,�L
2015/08/30,18:50,0.477,0.274,0.482,0.442,0.445,0.218,0.188,�k��,4.7,�L
2015/08/30,19:00,0.473,0.272,0.489,0.448,0.443,0.217,0.188,�k�k��,5.3,�L
2015/08/30,19:10,0.475,0.272,0.485,0.446,0.443,0.218,0.188,�k�k��,4.5,�L
2015/08/30,19:20,0.474,0.273,0.486,0.443,0.446,0.217,0.188,�k��,3.9,�L
2015/08/30,19:30,0.470,0.271,0.488,0.446,0.440,0.216,0.186,�k�k��,5.0,�L
2015/08/30,19:40,0.476,0.274,0.482,0.442,0.445,0.218,0.186,�k�k��,5.5,�L
2015/08/30,19:50,0.472,0.273,0.489,0.447,0.443,0.216,0.186,�k�k��,5.0,�L
2015/08/30,20:00,0.474,0.273,0.487,0.447,0.441,0.217,0.187,�k��,4.3,�L
2015/08/30,20:10,0.476,0.272,0.484,0.443,0.446,0.217,0.188,�k��,5.0,�L
2015/08/30,20:20,0.469,0.272,0.489,0.446,0.441,0.218,0.188,�k�k��,4.3,�L
2015/08/30,20:30,0.474,0.274,0.482,0.444,0.445,0.218,0.189,�k��,4.8,�L
2015/08/30,20:40,0.472,0.273,0.486,0.444,0.443,0.217,0.189,�k�k��,3.6,�L
2015/08/30,20:50,0.472,0.274,0.487,0.444,0.441,0.219,0.187,�k��,4.7,�L
2015/08/30,21:00,0.474,0.273,0.480,0.441,0.447,0.217,0.188,�k�k��,5.3,�L
2015/08/30,21:10,0.467,0.272,0.488,0.448,0.441,0.218,0.186,�k�k��,4.7,�L
2015/08/30,21:20,0.477,0.273,0.484,0.443,0.445,0.218,0.189,�k�k��,3.7,�L
2015/08/30,21:30,0.473,0.270,0.485,0.445,0.444,0.217,0.187,�k�k��,4.4,�L
2015/08/30,21:40,0.467,0.274,0.489,0.445,0.442,0.218,0.188,�k�k��,6.3,�L
2015/08/30,21:50,0.475,0.274,0.481,0.438,0.446,0.217,0.187,�k��,4.8,�L
2015/08/30,22:00,0.469,0.272,0.487,0.444,0.441,0.217,0.188,�k�k��,5.2,�L
2015/08/30,22:10,0.473,0.274,0.483,0.444,0.444,0.216,0.188,�k��,5.8,�L
2015/08/30,22:20,0.474,0.273,0.483,0.442,0.443,0.217,0.187,�k��,5.0,�L
2015/08/30,22:30,0.470,0.275,0.488,0.445,0.441,0.219,0.187,�k��,5.6,�L
2015/08/30,22:40,0.476,0.273,0.482,0.442,0.446,0.217,0.187,�k�k��,5.9,�L
2015/08/30,22:50,0.472,0.273,0.485,0.444,0.440,0.218,0.189,�k�k��,4.7,�L
2015/08/30,23:00,0.472,0.274,0.486,0.445,0.445,0.218,0.188,�k�k��,5.6,�L
2015/08/30,23:10,0.476,0.271,0.481,0.440,0.442,0.216,0.187,�k��,5.7,�L
2015/08/30,23:20,0.469,0.272,0.488,0.446,0.443,0.217,0.187,�k�k��,5.7,�L
2015/08/30,23:30,0.474,0.271,0.482,0.443,0.443,0.216,0.185,�k��,5.3,�L
2015/08/30,23:40,0.473,0.271,0.484,0.442,0.439,0.218,0.187,�k��,5.0,��
2015/08/30,23:50,0.470,0.271,0.486,0.444,0.446,0.216,0.186,�k��,3.3,��
